Location: Riverside Cemetery
(38.3047°N, 99.7773°W)
Time: 11:14:46
(UTC+00:00)

IDEFIX/ARIANE 42P - Pass Details

Date: 19 September 2020
Orbit: 786 x 802 km, 98.4° (Epoch: 25 October)

Event Time Altitude Azimuth Distance (km) Brightness Sun altitude
Rises 10:10:44 0° 7° (N) 3,320 6.2 -26.3°
Reaches altitude 10° 10:13:07 10° 3° (N) 2,386 5.3 -25.8°
Enters shadow 10:17:39 50° 311° (NW) 1,018 2.9 -25.0°
